Temp
-7 -7 -7 -7 -7 -7 -7 -7 -7 -7 -7 -7 -7 -8 -8 -9 -10 -11 -11 -11 -12 -12 -11 -11 -10 -10 -10 -9 -9 -9 -8 -7 -7 -7 -7 -7 -7 -9 -9 -9 -8 -7 -7 -7 -6
-7 -7 -7 -7 -7 -7 -7 -7 -8 -8 -8 -8 -9 -9 -10 -11 -12 -12 -12 -12 -13 -13 -13 -12 -12 -11 -11 -10 -10 -9 -8 -8 -8 -7 -8 -8 -8 -8 -9 -9 -8 -8 -7 -7 -7
-8 -8 -7 -7 -7 -7 -8 -8 -8 -8 -9 -9 -10 -10 -12 -13 -13 -13 -13 -13 -13 -13 -13 -13 -13 -12 -12 -11 -10 -9 -8 -8 -8 -8 -8 -8 -8 -9 -9 -8 -9 -8 -8 -8 -7
-8 -8 -7 -7 -7 -8 -8 -8 -9 -9 -9 -10 -11 -12 -13 -13 -13 -13 -13 -13 -13 -14 -14 -14 -13 -13 -12 -12 -11 -10 -9 -9 -9 -8 -8 -8 -8 -9 -9 -9 -9 -9 -7 -8 -7
-8 -8 -8 -8 -8 -8 -9 -9 -9 -10 -10 -10 -11 -12 -13 -14 -14 -14 -14 -14 -14 -14 -14 -15 -15 -14 -13 -12 -12 -11 -10 -10 -10 -9 -8 -8 -8 -9 -9 -8 -9 -9 -7 -7 -7
-8 -8 -8 -8 -8 -9 -9 -9 -10 -10 -11 -11 -12 -13 -14 -14 -14 -14 -14 -14 -15 -15 -16 -16 -16 -15 -14 -13 -12 -12 -11 -11 -10 -9 -9 -8 -9 -9 -9 -9 -9 -8 -9 -8 -8
-8 -8 -8 -8 -9 -9 -10 -10 -10 -11 -11 -12 -12 -14 -14 -14 -15 -15 -15 -15 -16 -17 -18 -18 -18 -16 -14 -14 -13 -12 -12 -12 -11 -10 -9 -9 -9 -8 -9 -9 -9 -9 -9 -8 -7
-8 -9 -9 -9 -9 -10 -10 -11 -11 -11 -12 -12 -13 -14 -15 -15 -16 -15 -16 -17 -18 -19 -19 -19 -19 -17 -15 -14 -14 -13 -12 -12 -11 -10 -9 -9 -8 -9 -9 -9 -9 -10 -9 -9 -8
-9 -9 -9 -9 -10 -10 -11 -11 -11 -12 -12 -13 -14 -15 -16 -16 -16 -16 -16 -18 -18 -19 -20 -20 -19 -17 -17 -15 -14 -14 -13 -11 -11 -10 -10 -9 -8 -8 -9 -9 -9 -10 -9 -9 -9
-9 -9 -9 -10 -10 -11 -11 -12 -12 -12 -13 -14 -15 -16 -16 -16 -16 -17 -17 -18 -20 -20 -21 -20 -19 -18 -17 -16 -14 -13 -13 -12 -12 -11 -10 -9 -8 -9 -10 -10 -10 -10 -9 -9 -9
-9 -9 -10 -10 -11 -11 -12 -12 -13 -13 -13 -14 -15 -16 -16 -17 -17 -17 -18 -20 -21 -21 -21 -21 -20 -18 -17 -16 -15 -14 -14 -13 -12 -11 -11 -10 -9 -10 -10 -10 -10 -10 -9 -9 -9
-9 -10 -10 -11 -11 -12 -12 -13 -13 -13 -14 -14 -16 -17 -17 -17 -17 -18 -19 -21 -22 -22 -22 -21 -20 -19 -18 -17 -16 -16 -14 -14 -13 -12 -12 -10 -10 -10 -11 -10 -10 -10 -10 -9 -9
-9 -10 -11 -11 -12 -12 -13 -13 -13 -14 -14 -15 -16 -16 -16 -17 -17 -18 -19 -21 -22 -22 -22 -21 -21 -20 -19 -18 -17 -16 -15 -14 -14 -13 -12 -11 -10 -11 -10 -10 -10 -10 -10 -9 -9
-10 -10 -11 -12 -12 -13 -13 -13 -14 -14 -14 -15 -16 -16 -17 -17 -17 -18 -19 -21 -21 -22 -22 -20 -20 -20 -20 -19 -18 -17 -15 -15 -14 -13 -12 -12 -11 -10 -10 -10 -10 -10 -9 -9 -8
-10 -11 -11 -12 -12 -12 -13 -13 -14 -14 -15 -16 -16 -17 -17 -17 -17 -18 -19 -20 -21 -21 -21 -20 -19 -19 -19 -18 -18 -17 -16 -16 -15 -14 -13 -12 -11 -10 -11 -11 -10 -9 -9 -8 -8
-11 -11 -12 -12 -12 -12 -13 -13 -14 -15 -15 -16 -17 -17 -18 -18 -17 -18 -19 -20 -20 -20 -20 -20 -19 -19 -19 -18 -18 -18 -17 -16 -16 -15 -14 -13 -12 -10 -10 -9 -9 -9 -9 -9 -9
-11 -11 -12 -12 -12 -12 -12 -13 -14 -15 -16 -16 -16 -18 -18 -18 -18 -18 -19 -19 -20 -20 -19 -19 -19 -19 -19 -19 -18 -18 -17 -16 -16 -15 -14 -13 -12 -10 -11 -10 -10 -10 -10 -10 -10
-12 -12 -12 -12 -13 -12 -13 -13 -13 -15 -16 -16 -16 -18 -18 -18 -18 -18 -19 -19 -19 -19 -19 -19 -19 -19 -19 -18 -18 -17 -17 -16 -15 -14 -14 -13 -12 -11 -11 -11 -10 -10 -10 -10 -10
-12 -12 -12 -13 -13 -13 -13 -13 -14 -15 -16 -16 -17 -18 -18 -18 -17 -18 -18 -19 -19 -19 -19 -19 -19 -19 -18 -18 -18 -17 -16 -16 -15 -15 -14 -13 -12 -11 -11 -11 -10 -10 -10 -9 -10
-12 -12 -12 -12 -13 -12 -13 -13 -14 -15 -16 -16 -16 -17 -18 -17 -18 -18 -18 -18 -19 -18 -19 -18 -18 -18 -18 -18 -18 -17 -17 -16 -15 -14 -14 -13 -12 -12 -12 -11 -11 -10 -10 -10 -10
-12 -12 -12 -12 -12 -12 -12 -13 -14 -15 -16 -16 -16 -17 -18 -18 -18 -18 -18 -18 -18 -18 -18 -18 -18 -18 -18 -17 -17 -16 -16 -16 -15 -14 -14 -13 -12 -12 -12 -11 -11 -11 -11 -10 -10
-12 -12 -12 -12 -12 -12 -13 -14 -14 -15 -16 -17 -17 -17 -17 -18 -18 -18 -18 -18 -18 -18 -18 -18 -18 -18 -18 -17 -17 -17 -16 -15 -15 -14 -14 -13 -13 -12 -12 -12 -11 -11 -11 -11 -11
-12 -13 -12 -12 -12 -12 -13 -14 -15 -16 -17 -17 -17 -17 -18 -18 -18 -18 -17 -17 -18 -18 -18 -18 -18 -18 -17 -17 -16 -16 -16 -15 -14 -14 -14 -13 -13 -13 -12 -12 -11 -11 -11 -11 -11
-12 -13 -12 -12 -12 -12 -13 -14 -16 -17 -17 -17 -18 -18 -18 -18 -18 -18 -18 -18 -18 -18 -18 -18 -18 -18 -18 -18 -17 -17 -16 -15 -15 -14 -14 -13 -13 -13 -12 -12 -12 -12 -12 -11 -11
-13 -13 -12 -12 -12 -13 -13 -15 -16 -17 -18 -18 -18 -19 -18 -18 -18 -18 -18 -18 -18 -18 -18 -18 -18 -17 -17 -17 -17 -16 -16 -16 -16 -15 -14 -14 -13 -13 -12 -12 -12 -12 -11 -11 -11
-13 -13 -13 -12 -12 -13 -14 -15 -16 -18 -18 -18 -19 -19 -19 -18 -18 -18 -18 -18 -18 -17 -17 -17 -17 -17 -17 -17 -18 -17 -17 -16 -15 -15 -15 -14 -13 -13 -13 -13 -12 -12 -12 -12 -13
-13 -13 -13 -12 -13 -13 -14 -16 -17 -18 -19 -19 -19 -19 -19 -19 -19 -18 -18 -18 -18 -18 -18 -18 -17 -17 -17 -17 -18 -17 -17 -17 -16 -16 -16 -16 -15 -15 -15 -14 -14 -13 -13 -14 -14
Height
5832 5828 5824 5819 5814 5810 5804 5797 5790 5782 5774 5767 5759 5750 5742 5736 5729 5724 5721 5719 5718 5720 5730 5732 5737 5741 5747 5754 5760 5767 5772 5782 5794 5804 5814 5819 5824 5829 5832 5839 5842 5848 5858 5863 5866
5829 5824 5819 5814 5809 5803 5796 5789 5780 5772 5763 5753 5743 5734 5727 5719 5716 5712 5710 5708 5704 5704 5710 5713 5718 5723 5731 5739 5745 5752 5761 5770 5783 5795 5802 5810 5815 5820 5824 5830 5837 5844 5850 5856 5861
5824 5819 5813 5808 5802 5795 5788 5780 5771 5762 5751 5741 5731 5720 5712 5708 5706 5703 5700 5695 5693 5692 5692 5697 5700 5708 5716 5723 5732 5742 5750 5759 5773 5783 5790 5798 5805 5811 5818 5824 5831 5838 5844 5849 5857
5820 5814 5808 5802 5795 5788 5780 5771 5761 5751 5740 5729 5719 5708 5701 5697 5695 5690 5686 5683 5680 5679 5680 5680 5684 5693 5701 5710 5718 5727 5737 5747 5760 5769 5779 5787 5796 5804 5809 5819 5824 5832 5840 5846 5853
5816 5809 5802 5795 5788 5780 5770 5761 5751 5741 5729 5718 5707 5697 5692 5687 5682 5676 5672 5669 5665 5664 5663 5663 5667 5674 5683 5693 5703 5712 5724 5733 5745 5757 5768 5777 5786 5793 5802 5810 5816 5822 5833 5842 5847
5811 5804 5797 5789 5781 5772 5762 5752 5743 5732 5720 5708 5697 5688 5682 5677 5670 5663 5658 5654 5651 5648 5645 5644 5649 5655 5666 5677 5688 5699 5710 5718 5731 5745 5758 5767 5775 5782 5797 5801 5808 5817 5822 5831 5840
5806 5799 5791 5783 5774 5765 5754 5744 5734 5722 5710 5699 5689 5680 5673 5667 5660 5653 5645 5640 5636 5632 5630 5630 5631 5640 5650 5662 5673 5683 5694 5704 5717 5735 5746 5756 5766 5784 5789 5793 5800 5809 5813 5823 5833
5801 5793 5785 5777 5767 5758 5748 5736 5725 5714 5702 5690 5680 5671 5664 5658 5651 5642 5635 5628 5621 5616 5614 5615 5618 5625 5635 5647 5661 5671 5681 5693 5711 5725 5737 5747 5768 5772 5777 5783 5793 5800 5808 5817 5827
5796 5788 5779 5771 5761 5752 5741 5729 5717 5706 5694 5683 5672 5664 5656 5649 5641 5631 5623 5614 5605 5597 5594 5597 5608 5615 5622 5634 5647 5660 5674 5687 5703 5717 5727 5742 5757 5764 5769 5776 5784 5791 5801 5810 5820
5791 5783 5774 5765 5755 5745 5734 5723 5710 5697 5687 5674 5664 5657 5649 5640 5631 5620 5610 5600 5589 5579 5579 5588 5595 5605 5614 5626 5645 5658 5667 5679 5695 5710 5723 5733 5745 5754 5761 5768 5777 5784 5793 5804 5813
5786 5778 5769 5760 5750 5739 5728 5716 5708 5697 5681 5669 5658 5649 5641 5631 5621 5611 5600 5589 5579 5570 5573 5582 5589 5603 5613 5624 5633 5644 5655 5670 5686 5699 5713 5724 5729 5742 5751 5760 5767 5778 5786 5797 5805
5781 5772 5764 5755 5744 5733 5721 5710 5699 5689 5676 5663 5654 5644 5635 5626 5616 5606 5595 5587 5578 5571 5571 5578 5587 5597 5604 5615 5627 5637 5651 5664 5679 5689 5705 5713 5721 5732 5742 5753 5762 5772 5780 5789 5798
5778 5769 5759 5750 5739 5727 5716 5705 5694 5682 5671 5659 5650 5641 5632 5624 5612 5603 5594 5586 5580 5575 5576 5580 5589 5594 5602 5612 5623 5634 5647 5660 5673 5681 5694 5704 5713 5725 5737 5747 5755 5766 5774 5784 5792
5774 5765 5755 5745 5736 5723 5712 5701 5689 5677 5666 5657 5647 5639 5631 5622 5612 5603 5594 5588 5582 5580 5580 5585 5589 5595 5603 5613 5621 5632 5643 5655 5666 5676 5688 5698 5710 5720 5732 5742 5749 5760 5770 5780 5788
5770 5762 5752 5739 5730 5720 5709 5696 5684 5673 5662 5653 5644 5636 5628 5621 5613 5605 5599 5591 5588 5588 5589 5590 5594 5599 5605 5614 5622 5633 5643 5652 5661 5671 5682 5694 5705 5715 5726 5735 5747 5757 5766 5774 5782
5766 5758 5748 5738 5727 5716 5703 5692 5681 5671 5660 5651 5642 5635 5628 5622 5615 5608 5602 5595 5594 5594 5594 5594 5594 5597 5607 5615 5622 5631 5639 5649 5658 5668 5679 5691 5701 5712 5726 5741 5748 5753 5760 5769 5777
5762 5753 5743 5732 5723 5711 5699 5688 5678 5667 5658 5651 5642 5634 5629 5624 5618 5612 5605 5601 5598 5598 5599 5600 5601 5604 5609 5616 5622 5629 5637 5648 5658 5667 5677 5688 5700 5713 5724 5734 5740 5748 5755 5763 5770
5758 5749 5739 5728 5718 5707 5695 5684 5673 5662 5653 5645 5638 5633 5629 5625 5620 5615 5610 5606 5603 5602 5603 5605 5607 5608 5612 5619 5626 5632 5640 5649 5659 5667 5675 5685 5697 5708 5719 5728 5735 5742 5748 5756 5763
5753 5745 5735 5724 5714 5703 5691 5680 5668 5659 5650 5644 5637 5631 5628 5624 5620 5618 5614 5611 5608 5608 5609 5608 5609 5611 5614 5620 5628 5633 5642 5650 5658 5665 5676 5685 5696 5706 5713 5723 5731 5738 5745 5751 5759
5750 5740 5731 5720 5710 5698 5688 5676 5665 5655 5647 5640 5634 5630 5626 5624 5622 5619 5617 5614 5612 5611 5611 5611 5613 5614 5617 5622 5628 5635 5643 5650 5656 5665 5674 5683 5692 5701 5708 5717 5726 5735 5742 5747 5754
5746 5736 5726 5715 5706 5695 5682 5673 5662 5652 5644 5638 5631 5627 5624 5622 5621 5619 5619 5618 5615 5615 5614 5615 5616 5619 5620 5625 5630 5636 5641 5649 5657 5664 5672 5680 5688 5696 5704 5712 5722 5729 5737 5744 5749
5744 5733 5722 5712 5703 5689 5678 5668 5658 5649 5641 5634 5628 5623 5621 5620 5619 5618 5618 5617 5617 5616 5617 5616 5618 5619 5623 5626 5630 5636 5641 5647 5654 5663 5670 5677 5686 5691 5700 5708 5716 5725 5732 5737 5741
5739 5729 5718 5707 5698 5687 5674 5663 5652 5645 5636 5631 5624 5620 5618 5616 5616 5617 5616 5617 5617 5617 5617 5618 5618 5621 5624 5629 5631 5636 5641 5646 5653 5659 5666 5674 5683 5689 5696 5704 5713 5720 5725 5731 5736
5733 5722 5711 5700 5692 5679 5670 5659 5649 5637 5631 5626 5619 5615 5614 5611 5612 5613 5615 5616 5617 5617 5618 5619 5620 5620 5624 5628 5632 5636 5640 5645 5650 5657 5664 5671 5677 5684 5691 5699 5707 5713 5719 5724 5729
5729 5719 5705 5697 5688 5675 5663 5652 5643 5635 5627 5621 5616 5611 5610 5608 5608 5610 5612 5614 5616 5617 5618 5619 5621 5621 5620 5625 5629 5634 5639 5645 5650 5655 5661 5666 5673 5679 5687 5694 5699 5705 5711 5715 5719
5726 5716 5704 5694 5683 5671 5658 5647 5637 5630 5622 5618 5613 5608 5606 5605 5604 5606 5608 5611 5613 5616 5617 5618 5620 5620 5622 5625 5628 5632 5637 5642 5647 5653 5658 5663 5670 5676 5680 5685 5690 5695 5700 5704 5710
5722 5713 5702 5690 5679 5668 5654 5642 5633 5624 5619 5611 5608 5605 5602 5601 5602 5602 5605 5608 5611 5614 5616 5618 5619 5621 5623 5624 5627 5631 5637 5642 5647 5651 5656 5661 5665 5672 5677 5680 5684 5689 5694 5698 5704
Wind_Speed
28 31 34 37 39 42 45 46 49 52 53 56 56 57 55 54 47 42 45 47 53 64 62 66 68 68 68 67 65 64 65 61 54 50 47 46 47 50 48 48 50 48 40 40 40
32 36 38 39 42 43 45 48 51 53 55 57 56 55 50 40 36 37 36 33 38 44 59 62 64 67 70 69 67 67 67 63 57 51 49 48 49 50 53 49 53 50 45 38 37
33 36 37 40 41 44 47 50 52 55 57 58 55 53 43 34 37 37 38 40 40 40 44 59 63 67 68 69 69 68 68 66 59 54 53 52 50 48 55 54 51 54 52 45 37
33 36 38 40 43 46 49 51 53 56 58 56 53 48 39 38 40 42 41 42 45 46 47 53 62 63 67 68 69 69 68 66 64 59 57 55 51 51 54 56 52 52 51 49 39
35 36 39 42 45 48 50 52 53 57 57 55 51 45 38 37 42 43 42 43 44 45 51 54 56 64 66 67 66 69 68 66 64 63 60 57 54 52 52 56 57 52 51 48 41
35 37 41 44 47 49 51 52 53 54 55 53 50 42 36 38 40 41 43 42 43 50 47 48 55 55 66 67 65 67 67 67 63 63 62 59 57 55 51 55 57 57 52 50 47
36 39 42 44 47 49 52 54 53 53 54 52 48 40 36 40 37 40 40 41 46 48 43 38 47 52 63 66 65 68 68 67 66 63 63 61 57 52 52 55 56 57 56 48 44
39 41 43 46 49 51 52 54 53 52 54 51 46 39 37 39 39 38 39 43 43 40 42 42 44 49 63 64 64 64 68 67 65 62 64 62 53 54 55 56 56 58 57 50 46
41 43 44 48 50 52 53 51 52 53 55 52 44 37 39 42 40 40 42 43 44 41 39 40 39 48 60 64 63 62 64 66 63 63 64 60 56 53 57 57 56 58 56 54 49
42 44 46 49 52 54 54 52 53 56 56 51 43 39 39 44 40 42 42 43 40 31 31 32 37 48 54 61 59 59 58 63 60 61 62 59 59 56 56 58 56 58 58 57 54
43 45 46 50 53 55 54 52 52 53 55 49 39 38 41 41 42 42 40 36 30 19 22 26 32 40 45 58 57 58 55 57 57 58 58 60 62 59 54 58 59 56 58 59 57
44 46 47 50 53 56 54 53 53 53 53 48 38 37 37 36 41 37 36 27 18 11 14 22 28 40 42 52 52 53 52 53 53 54 54 61 63 58 54 55 58 56 57 60 61
45 45 49 51 53 55 53 53 55 54 50 39 39 36 34 38 39 35 31 25 13 5 13 17 17 33 36 44 49 49 49 47 47 50 53 57 62 57 56 54 55 56 56 58 61
45 46 51 52 54 54 55 57 55 54 50 45 37 35 33 35 34 32 26 23 9 3 17 8 20 18 22 37 43 44 44 42 44 48 51 56 57 56 54 53 56 55 55 54 55
45 48 52 55 54 55 58 59 55 54 49 44 38 33 31 32 31 29 24 20 13 10 9 20 15 12 27 28 38 39 36 37 40 42 49 50 53 55 51 53 55 55 55 53 52
46 49 52 54 56 58 60 60 56 52 46 40 37 32 27 27 27 22 21 20 12 5 1 15 6 11 27 27 34 35 34 34 36 39 44 46 48 52 49 49 53 54 54 54 52
49 50 53 56 57 60 62 61 56 50 45 38 35 28 22 23 21 21 19 18 16 12 2 8 8 15 24 28 27 34 35 33 34 36 39 44 45 48 44 45 49 49 50 51 49
48 51 53 57 59 60 62 61 57 51 45 39 36 26 21 20 15 17 20 20 16 14 8 1 7 11 21 23 26 32 31 30 32 36 38 40 43 44 41 42 47 47 48 45 44
49 50 54 58 58 62 63 60 56 51 45 37 32 23 19 21 13 9 16 11 14 14 9 1 5 11 18 18 23 31 30 29 29 32 32 38 43 41 41 41 43 43 42 39 36
50 52 56 57 59 64 64 60 53 49 45 39 34 26 15 11 19 7 9 12 11 9 8 4 2 12 16 20 22 26 27 28 28 30 30 33 39 40 42 43 42 41 39 38 38
50 54 56 59 62 65 65 59 53 48 45 39 33 29 18 11 8 6 6 5 4 4 5 2 3 10 16 20 22 25 27 27 27 27 29 31 34 37 42 45 45 44 42 40 38
51 53 57 60 64 66 65 61 55 48 43 36 31 29 17 10 8 10 1 2 2 5 3 3 2 7 11 18 23 23 25 27 28 26 28 31 33 34 38 41 45 43 42 40 38
52 54 57 61 65 67 64 60 53 48 41 32 31 28 16 12 8 9 9 6 4 1 2 2 4 4 11 16 21 24 27 27 28 29 28 30 33 34 34 36 39 40 40 42 44
54 56 60 64 67 69 67 61 53 47 39 31 29 27 18 14 10 9 12 9 5 5 3 4 1 4 10 11 15 19 26 29 31 29 29 29 29 33 34 36 36 38 40 41 43
54 57 61 65 66 67 67 63 54 44 36 32 28 28 20 11 12 12 11 14 12 6 5 5 3 4 9 15 17 19 18 22 27 30 31 32 32 33 34 36 38 40 41 44 47
54 56 61 65 68 68 66 61 53 40 37 33 29 24 22 11 11 12 15 16 15 11 7 5 5 3 12 8 20 17 21 27 27 31 29 32 35 35 37 39 40 46 48 50 49
53 57 60 67 67 67 65 58 51 42 35 35 29 21 21 13 7 14 17 14 15 9 8 10 7 2 7 7 19 23 20 14 18 19 21 23 25 25 22 29 27 25 24 28 35
Wind_Direction
326 326 328 327 327 326 324 323 320 319 319 316 311 307 305 302 294 282 279 275 266 256 249 243 239 237 234 233 231 230 231 233 231 228 223 221 214 214 218 213 218 222 219 216 223
322 326 324 326 327 327 327 324 322 322 320 317 314 313 310 296 287 287 282 284 279 268 251 248 241 238 234 233 230 229 231 232 228 226 225 221 219 212 217 215 216 217 218 216 222
327 327 328 329 330 328 327 325 324 324 322 320 319 316 309 285 284 289 283 279 277 273 265 248 244 237 234 231 230 228 229 228 225 224 224 220 219 215 216 220 218 217 216 217 220
330 331 331 331 330 331 331 328 326 326 324 323 321 319 308 291 288 292 288 280 277 269 263 261 244 238 233 232 230 228 228 228 225 223 221 220 217 217 215 217 222 220 219 218 215
333 334 332 331 333 336 333 330 328 327 326 325 324 319 309 298 294 294 291 287 277 269 266 259 247 235 231 229 228 226 226 227 224 220 219 218 216 213 215 217 220 221 220 220 217
336 335 334 334 337 338 334 330 330 328 329 329 326 320 311 304 302 299 296 287 280 277 274 263 239 231 225 225 226 225 223 223 223 219 217 217 216 214 214 217 220 223 221 220 216
337 336 337 338 338 338 335 332 332 329 333 331 327 321 313 314 306 303 297 293 288 283 266 256 235 227 218 221 220 223 221 221 220 217 216 217 217 214 217 218 220 220 223 220 216
337 338 338 340 340 339 336 334 334 335 337 332 328 323 314 319 315 309 302 299 293 282 267 250 234 223 213 215 218 220 221 218 217 216 215 216 210 211 215 217 220 217 223 221 219
336 337 339 341 340 339 338 335 337 339 337 334 328 323 317 321 319 314 309 305 302 286 262 243 232 217 215 211 212 216 221 219 216 215 215 213 209 215 213 218 218 219 219 218 215
338 339 340 342 341 339 340 338 340 341 339 335 330 324 323 324 323 318 314 317 314 286 250 232 225 213 216 209 209 212 218 219 216 215 213 212 210 215 212 215 218 219 218 218 218
338 340 340 341 341 341 341 342 341 340 339 336 330 328 326 329 328 322 322 328 322 291 233 211 220 205 212 205 206 210 214 217 214 213 212 212 212 212 214 213 214 218 223 219 222
340 341 341 342 342 342 342 342 340 340 341 338 334 329 330 331 333 329 334 335 328 334 203 196 207 204 205 203 204 209 210 215 212 213 211 212 213 213 210 212 216 216 222 224 223
343 343 342 343 344 344 342 343 341 340 343 342 338 332 332 336 339 337 344 344 325 338 170 155 207 205 201 202 200 205 209 213 211 211 208 210 214 213 212 211 215 217 220 224 226
343 344 344 344 345 345 344 343 341 342 346 341 339 336 338 339 344 342 354 360 15 114 197 170 164 195 196 202 199 202 207 209 211 210 208 210 214 215 215 211 216 218 222 225 229
343 344 345 345 346 346 344 343 342 344 350 342 340 338 343 347 349 346 1 18 43 115 159 178 123 181 183 200 199 200 205 205 208 207 208 208 213 216 214 214 216 220 225 228 230
344 345 345 345 346 346 344 344 342 346 349 343 341 339 345 350 355 351 10 29 41 109 109 189 185 138 192 196 196 199 199 199 200 201 208 208 211 214 216 217 219 222 225 229 233
342 343 343 345 348 345 344 344 342 347 347 344 342 338 342 352 358 3 12 25 41 47 132 181 184 177 184 199 196 195 198 198 196 199 206 208 208 211 211 210 216 220 224 226 231
342 344 344 344 345 344 344 344 343 345 347 344 343 337 336 335 5 17 22 27 42 47 62 56 188 197 187 199 199 196 194 197 202 204 204 208 206 207 206 206 211 215 220 221 226
340 342 343 341 344 344 345 343 345 343 342 348 342 338 334 334 336 13 23 47 53 39 34 103 211 186 182 191 199 196 194 194 197 205 208 210 206 204 203 204 208 210 217 223 226
340 341 342 343 345 345 343 344 344 342 341 346 342 341 325 310 341 343 11 28 42 63 37 98 213 191 192 193 192 195 192 196 200 205 203 207 210 203 203 203 204 207 212 222 230
340 341 344 344 344 344 343 345 343 340 340 342 340 336 324 321 330 1 19 34 48 29 64 21 163 200 198 195 199 191 193 199 202 206 203 204 206 205 204 206 208 211 216 225 235
340 342 344 342 344 345 343 344 343 341 339 340 335 329 328 302 287 289 218 310 69 82 15 330 295 197 212 200 196 192 195 195 201 203 203 201 206 206 205 208 212 214 217 218 227
345 345 344 342 345 344 344 344 341 340 337 337 329 324 325 291 249 237 231 194 206 130 171 32 335 256 214 215 201 195 197 199 199 202 203 202 206 208 207 208 212 216 218 220 225
345 346 343 343 345 344 344 343 342 338 336 334 324 318 325 303 258 238 201 208 177 166 179 179 95 319 239 210 220 213 207 203 201 202 203 198 200 209 208 207 210 215 220 225 232
346 346 342 343 345 343 342 341 343 340 336 330 323 320 326 292 261 219 213 229 212 200 164 210 211 288 237 217 218 217 212 221 216 216 213 215 210 208 209 212 216 219 225 228 230
345 344 343 342 344 343 342 343 344 341 334 328 327 326 325 294 265 237 209 214 220 218 178 189 228 183 188 223 227 228 208 218 219 221 228 227 217 217 220 220 225 227 228 231 234
344 342 342 341 343 343 343 343 343 343 338 332 334 337 327 309 283 234 206 211 218 239 216 235 254 283 197 170 203 206 195 191 205 215 217 218 214 215 207 217 218 212 217 216 218